Overview Statistics Trail Chart Weather Telemetry Raw packets
 

This is the latest recevied weather packets stored in our database for station/object KN1OBI-13. If no packets are shown the sender has not sent any weather packets the latest 10 day(s).

<< 39 40 41 42 43 44 45 >>
Time Temp. Humidity Pressure Rain* Wind** Luminosity Snow
1788022591 23.89° C 50% 1002.2 hPa 0 mm - - -
1788021991 23.33° C 50% 1002.1 hPa 0 mm - - -
1788021391 22.78° C 50% 1002.2 hPa 0 mm - - -
1788020791 22.78° C 56% 1002.3 hPa 0 mm - - -
1788020191 22.22° C 48% 1002.5 hPa 0 mm - - -
1788019591 22.22° C 50% 1002.3 hPa 0 mm - - -
1788018990 21.67° C 48% 1002.6 hPa 0 mm - - -
1788018391 21.67° C 48% 1002.8 hPa 0 mm - - -
1788017791 21.67° C 52% 1002.8 hPa 0 mm - - -
1788017191 21.11° C 53% 1002.9 hPa 0 mm - - -
1788016591 21.11° C 52% 1002.8 hPa 0 mm - - -
1788015991 20.56° C 54% 1003 hPa 0 mm - - -
1788015391 20.56° C 56% 1002.9 hPa 0 mm - - -
1788014791 20.56° C 57% 1002.9 hPa 0 mm - - -
1788014191 20° C 59% 1003.1 hPa 0 mm - - -
1788013596 20° C 60% 1003 hPa 0 mm - - -
1788012991 19.44° C 57% 1002.8 hPa 0 mm - - -
1788012390 19.44° C 59% 1003.1 hPa 0 mm - - -
1788011790 18.89° C 61% 1003.1 hPa 0 mm - - -
1788011191 18.89° C 65% 1002.8 hPa 0 mm - - -
1788010591 18.89° C 69% 1002.9 hPa 0 mm - - -
1788009990 18.33° C 72% 1002.8 hPa 0 mm - - -
1788009391 17.78° C 72% 1002.7 hPa 0 mm - - -
1788008791 17.78° C 73% 1002.5 hPa 0 mm - - -
1788008190 17.22° C 73% 1002.6 hPa 0 mm - - -

* Rain latest hour (hover to see other rain measurements)
** Current wind speed in m/s (hover to see current wind gust speed)